COSMOS 2559 (707K)

Last updated on Fri Jun 19 2026 17:09:56 GMT+0000 (Coordinated Universal Time)

1 54031U 22130A 26169.33634979 -.00000058 00000+0 00000+0 0 9991 2 54031 64.2705 314.5280 0012585 178.2040 181.7898 2.13101593 28710
UTC large
Height (km)
Speed (km/s)
/
Latitude / Longitude
Inclination (degrees)
Orbital Period (minutes)
Azimuth
Elevation
Range (km)
Doppler Factor

Next 0 passes for location: London (51.5072 / 0.1276)

No passes found over London.
COSMOS 2559 (707K)